吉林一号 宽幅 01C (JILIN-1 KUANFU 01C)

导读

JILIN-01 KUANFU 01C即吉林一号宽幅01C卫星,是中国自主研发的商业光学遥感卫星,于2022年5月5日发射入轨。作为“吉林一号”星座的组成部分,它具备高分辨率对地成像能力,拥有大侧摆、多模式成像等技术特点,可服务于国土资源监测、智慧城市建设、农业估产、防灾减灾等多个领域,为我国遥感应用商业化发展提供重要数据支撑,推动航天遥感产业化应用迈出关键步伐。

Basic Information
目录编号:
52443
目录名称:
JILIN-01 KUANFU 01C
国际标识:
2022-048A
轨道中心:
EARTH
卫星名称:
宽幅 01C
卫星全名:
吉林一号 宽幅 01C (JILIN-1 KUANFU 01C)
卫星状态:
在轨 (已飞行1594 天)
发射日期:
2022-05-05 UTC
国别 :
中国 (CN)
星等 :
--
This satellite is enrolled in the Space Conjunction Data Service (SCDS) and the current flight risk assessment level is: No High Risk
Orbit Information
数据来源 国际轨道数据
星历时间: 2026-09-15T23:13:02+0800
6小时前
查看轨道信息
半长轴: 6914.712km
偏心率: 0.0018435
轨道倾角: 97.519°
近地点辐角 15.000°
升交点赤经 334.134°
平近点角 345.178°
近地点: 523.827km
远地点: 549.323km
周期: 95.372分钟
每日圈数: 15.098773
Detailed Information
卫星平台:
高分卫星平台
平衡模式:
三轴稳定
覆盖范围:
全球
运营商:
长光卫星技术股份有限公司
运营商所在国:
中国
制造商(研发单位):
长光卫星技术股份有限公司
制造商所在国:
中国
使用方式:
暂无
Satellite Introduction
“吉林一号”卫星星座(JiLin-1)是长光卫星技术有限公司在建的核心工程,是我国目前最大的商业遥感卫星星座,具备了较强的服务能力。该卫星仍在工作。
2D Orbit Map
3D Orbit Map
Orbit Altitude Analysis Chart
Orbit Inclination Analysis Chart
Orbit Comprehensive Analysis Chart
View Comprehensive Chart
Conjunction Data List
Event ID Objects TCA Miss Dist (km) Collision Risk Probability Collision Risk Index (CRI) Action
CDM_260916-172005-244305-358626
2026-09-16T
17:20:06+0000
0.923 km
远距离
3.117889E-5 中风险 0.65
CDM_260917-205205-244305-909922
MUSAT2 (59099)
2026-09-17T
20:52:28+0000
1.491 km
极远距离
4.554634E-6 低风险 0.48
CDM_260917-135905-244306-585323
2026-09-17T
13:59:51+0000
1.571 km
极远距离
4.425338E-6 低风险 0.48
Miss Distance Evolution Trend with All Objects Subscribe to Flight Safety Assessment
Collision Probability Evolution Trend with All Objects Subscribe to Flight Safety Assessment